Showing default

USA 270, 41744

Orbit data source: Space-Track

USA 270, 41744 is a payload satellite owned by USAF AFSPC (US) in GEO that was launched on Fri, 19 Aug 2016 UTC via a DELTA 4M+(4,2) launch vehicle from the Air Force Eastern Test Range (AFETR). Payload-class satellites include a variety of spacecraft equipped with specific instruments for various scientific and technological missions. These include communications satellites like Starlink; space stations such as the ISS; scientific satellites like the Hubble; Earth observation satellites from companies like Planet Labs, Umbra, and HawkEye 360; GPS; miniature CubeSats for education and research; and military/defense satellites.

Not visible in the next 10 days
Identifier
41744, 2016-052A
Orbit
GEO
Country
Flag of USUS
Related business
Manufacturer
OATK SSG
Mission
Operational Defense Classified
Bus & Motor
GEOSTAR-1, AOCS
Mass
500 kg wet, 500 kg dry
Launch date (UTC)
2016-08-19 (9 years ago)
Launch vehicle
DELTA 4M+(4,2)
Launch site
Air Force Eastern Test Range (AFETR)
Object type
Payload
Rocket body
Debris
Shape & HBR
Box + 2 Pan, 2.5 m
Radar Cross Section
7.621 m²

Expand to show TLE details & history
Last TLE update: 3 days ago

TLE from 3 days ago
0 USA 270
1 41744U 16052A   25346.79457869 -.00000156  00000-0  00000+0 0  9991
2 41744   3.7190  79.5863 0001478 252.7357 187.8916  1.00330431 26262
Epoch: 2025-12-12T19:04Z
TLE epoch observation values (Epoch: 2025-12-12T19:04:11.598Z)
Latitude
3.67385°
Longitude
152.41077°
Altitude
35,775.411 km
Speed
3.075 km/s
True Right ascension
10h 40m 45s
True Declination
3° 40' 12"
Sunlit
Object was in daylight at epoch
Visualization orbit readout
Latitude
Unknown
Longitude
Unknown
Altitude
Unknown
Speed
Unknown
Apparent Right ascension
Unknown
Apparent Declination
Unknown
Sunlit
N/A
Visualization observer readout
Local Sidereal Time
11:04:16
Azimuth
Unknown
Elevation
Unknown
Doppler factor
Unknown
Orbital elements
Apogee altitude
35,777.456 km
Perigee altitude
35,764.997 km
Semi-major axis
42,149.364 km
Eccentricity
0.00015
Inclination
3.719°
RAAN
79.5863°
Arg. of periapsis
252.7357°
True anomaly
187.88928°
Mean anomaly
187.8916°
Eccentric anomaly
187.89044°
Mean motion
0.25082 °/min
Orbital period
1,435.31 mins
BSTAR
0
Loading maneuver chart data...
Computing Atmospheric mass density...
Loading historical data...
Loading historical data...
Loading historical data...
Loading historical data...
Loading historical data...
Loading historical data...
Loading historical data...
Other satellites on launch #52 in the year 2016 (2016-08-19 UTC)

Documentation

Showing up to 5 results
|